Vanquish — PHCU — position and weather

sailwx.info

Track history (hours):
 
Tides and Currents Weather Stations Pressure Air Temp Water Temp Dewpoint Dewpoint Depression Visibility Wind Speed Wind Dir Waves Ship Positions

Vanquish

Last reported at 2014-Aug-29 20:33 UTC. Time now 2014-Aug-30 14:34 UTC.
Position N 53°53' W 005°59'.

MMSI: 246138952.

Date/timePositionNaut miles runAvg speedWind from/ knotsBaromVisibWave heightAir tempDewpointWater temp
2014-Aug-29 20:33N 53°53' W 005°59'11 0.4
2014-Aug-28 15:17N 54°03' W 006°08'810.6
2014-Aug-28 14:29N 53°55' W 006°01'18510.3
2014-Aug-27 20:33N 51°27' W 002°59'1010.4
2014-Aug-27 19:33N 51°30' W 002°43'0 0.3
2014-Aug-27 18:33N 51°30' W 002°42'0 0.0
2014-Aug-27 17:33N 51°30' W 002°42'0 0.0
2014-Aug-27 16:33N 51°30' W 002°42'0 0.0
2014-Aug-27 15:33N 51°30' W 002°42'0 0.0
2014-Aug-27 14:33N 51°30' W 002°42'0 0.0
2014-Aug-27 13:33N 51°30' W 002°42'0 0.0
2014-Aug-27 12:33N 51°30' W 002°42'0 0.0
2014-Aug-27 11:33N 51°30' W 002°42'0 0.0
2014-Aug-27 10:33N 51°30' W 002°42'0 0.0
2014-Aug-27 09:33N 51°30' W 002°42'0 0.0
2014-Aug-27 08:33N 51°30' W 002°42'0 0.0
2014-Aug-27 07:33N 51°30' W 002°42'0 0.0
2014-Aug-27 06:33N 51°30' W 002°42'0 0.0
2014-Aug-27 05:33N 51°30' W 002°42'0 0.0
2014-Aug-27 04:33N 51°30' W 002°42'0 0.0
2014-Aug-27 03:33N 51°30' W 002°42'0 0.0
2014-Aug-27 02:33N 51°30' W 002°42'0 0.0
2014-Aug-27 01:33N 51°30' W 002°42'0 0.0
2014-Aug-27 00:33N 51°30' W 002°42'0 0.0
2014-Aug-26 23:33N 51°30' W 002°42'0 0.0
2014-Aug-26 22:33N 51°30' W 002°42'0 0.0
2014-Aug-26 21:33N 51°30' W 002°42'0 0.4
2014-Aug-26 20:33N 51°30' W 002°43'7 7.4
2014-Aug-26 19:33N 51°28' W 002°54'186 8.1
2014-Aug-25 20:32N 53°57' W 005°59'4 0.1
2014-Aug-24 15:31N 54°00' W 006°02'18610.4
2014-Aug-23 21:33N 51°21' W 003°23'1413.9
2014-Aug-23 20:32N 51°26' W 003°01'1312.3
2014-Aug-23 19:31N 51°30' W 002°43'0 0.0
2014-Aug-23 03:31N 51°30' W 002°42'0 0.0
2014-Aug-23 02:31N 51°30' W 002°42'0 0.0
2014-Aug-23 01:31N 51°30' W 002°42'0 0.0
2014-Aug-23 00:31N 51°30' W 002°42'0 0.0
2014-Aug-22 23:31N 51°30' W 002°42'0 0.0
2014-Aug-22 22:31N 51°30' W 002°42'0 0.0
2014-Aug-22 21:31N 51°30' W 002°42'0 0.0
2014-Aug-22 20:31N 51°30' W 002°42'0 0.0
2014-Aug-22 19:25N 51°30' W 002°42'0 0.0
2014-Aug-22 18:31N 51°30' W 002°42'0 0.0
2014-Aug-22 17:31N 51°30' W 002°42'0 0.0
2014-Aug-22 16:31N 51°30' W 002°42'0 0.0
2014-Aug-22 15:31N 51°30' W 002°42'0 0.0
2014-Aug-22 14:31N 51°30' W 002°42'0 0.0
2014-Aug-22 13:31N 51°30' W 002°42'0 0.0
2014-Aug-22 12:31N 51°30' W 002°42'0 0.0
2014-Aug-22 11:31N 51°30' W 002°42'0 0.0
2014-Aug-22 10:31N 51°30' W 002°42'0 0.0
2014-Aug-22 09:31N 51°30' W 002°42'0 0.0
2014-Aug-22 08:31N 51°30' W 002°42'0 0.0
2014-Aug-22 07:31N 51°30' W 002°42'0 0.0
2014-Aug-22 06:31N 51°30' W 002°42'0 0.0
2014-Aug-22 05:31N 51°30' W 002°42'0 0.0
2014-Aug-22 04:31N 51°30' W 002°42'0 0.0
2014-Aug-22 03:31N 51°30' W 002°42'0 0.0
2014-Aug-22 02:31N 51°30' W 002°42'0 0.0
2014-Aug-22 01:31N 51°30' W 002°42'0 0.0
2014-Aug-22 00:31N 51°30' W 002°42'0 0.0
2014-Aug-21 23:31N 51°30' W 002°42'0 0.0
2014-Aug-21 22:31N 51°30' W 002°42'0 0.0
2014-Aug-21 21:31N 51°30' W 002°42'0 0.0
2014-Aug-21 20:31N 51°30' W 002°42'0 0.0
2014-Aug-21 19:31N 51°30' W 002°42'0 0.0
2014-Aug-21 18:31N 51°30' W 002°42'0 0.0
2014-Aug-21 17:31N 51°30' W 002°42'0 0.3
2014-Aug-21 16:33N 51°30' W 002°43'4 3.7
2014-Aug-21 15:33N 51°29' W 002°48'1313.5
2014-Aug-21 14:33N 51°22' W 003°07'100 9.6
2014-Aug-21 04:09N 52°06' W 005°31'710.9
2014-Aug-21 03:33N 52°13' W 005°32'10112.7
2014-Aug-20 19:33N 53°53' W 005°58'  
Track history (hours):
 
Tides and Currents Weather Stations Pressure Air Temp Water Temp Dewpoint Dewpoint Depression Visibility Wind Speed Wind Dir Waves Ship Positions

Vanquish

Last reported at 2014-Aug-29 20:33 UTC. Time now 2014-Aug-30 14:34 UTC.
Position N 53°53' W 005°59'.

MMSI: 246138952.

Date/timePositionNaut miles runAvg speedWind from/ knotsBaromVisibWave heightAir tempDewpointWater temp
2014-Aug-29 20:33N 53°53' W 005°59'11 0.4
2014-Aug-28 15:17N 54°03' W 006°08'810.6
2014-Aug-28 14:29N 53°55' W 006°01'18510.3
2014-Aug-27 20:33N 51°27' W 002°59'1010.4
2014-Aug-27 19:33N 51°30' W 002°43'0 0.3
2014-Aug-27 18:33N 51°30' W 002°42'0 0.0
2014-Aug-27 17:33N 51°30' W 002°42'0 0.0
2014-Aug-27 16:33N 51°30' W 002°42'0 0.0
2014-Aug-27 15:33N 51°30' W 002°42'0 0.0
2014-Aug-27 14:33N 51°30' W 002°42'0 0.0
2014-Aug-27 13:33N 51°30' W 002°42'0 0.0
2014-Aug-27 12:33N 51°30' W 002°42'0 0.0
2014-Aug-27 11:33N 51°30' W 002°42'0 0.0
2014-Aug-27 10:33N 51°30' W 002°42'0 0.0
2014-Aug-27 09:33N 51°30' W 002°42'0 0.0
2014-Aug-27 08:33N 51°30' W 002°42'0 0.0
2014-Aug-27 07:33N 51°30' W 002°42'0 0.0
2014-Aug-27 06:33N 51°30' W 002°42'0 0.0
2014-Aug-27 05:33N 51°30' W 002°42'0 0.0
2014-Aug-27 04:33N 51°30' W 002°42'0 0.0
2014-Aug-27 03:33N 51°30' W 002°42'0 0.0
2014-Aug-27 02:33N 51°30' W 002°42'0 0.0
2014-Aug-27 01:33N 51°30' W 002°42'0 0.0
2014-Aug-27 00:33N 51°30' W 002°42'0 0.0
2014-Aug-26 23:33N 51°30' W 002°42'0 0.0
2014-Aug-26 22:33N 51°30' W 002°42'0 0.0
2014-Aug-26 21:33N 51°30' W 002°42'0 0.4
2014-Aug-26 20:33N 51°30' W 002°43'7 7.4
2014-Aug-26 19:33N 51°28' W 002°54'186 8.1
2014-Aug-25 20:32N 53°57' W 005°59'4 0.1
2014-Aug-24 15:31N 54°00' W 006°02'18610.4
2014-Aug-23 21:33N 51°21' W 003°23'1413.9
2014-Aug-23 20:32N 51°26' W 003°01'1312.3
2014-Aug-23 19:31N 51°30' W 002°43'0 0.0
2014-Aug-23 03:31N 51°30' W 002°42'0 0.0
2014-Aug-23 02:31N 51°30' W 002°42'0 0.0
2014-Aug-23 01:31N 51°30' W 002°42'0 0.0
2014-Aug-23 00:31N 51°30' W 002°42'0 0.0
2014-Aug-22 23:31N 51°30' W 002°42'0 0.0
2014-Aug-22 22:31N 51°30' W 002°42'0 0.0
2014-Aug-22 21:31N 51°30' W 002°42'0 0.0
2014-Aug-22 20:31N 51°30' W 002°42'0 0.0
2014-Aug-22 19:25N 51°30' W 002°42'0 0.0
2014-Aug-22 18:31N 51°30' W 002°42'0 0.0
2014-Aug-22 17:31N 51°30' W 002°42'0 0.0
2014-Aug-22 16:31N 51°30' W 002°42'0 0.0
2014-Aug-22 15:31N 51°30' W 002°42'0 0.0
2014-Aug-22 14:31N 51°30' W 002°42'0 0.0
2014-Aug-22 13:31N 51°30' W 002°42'0 0.0
2014-Aug-22 12:31N 51°30' W 002°42'0 0.0
2014-Aug-22 11:31N 51°30' W 002°42'0 0.0
2014-Aug-22 10:31N 51°30' W 002°42'0 0.0
2014-Aug-22 09:31N 51°30' W 002°42'0 0.0
2014-Aug-22 08:31N 51°30' W 002°42'0 0.0
2014-Aug-22 07:31N 51°30' W 002°42'0 0.0
2014-Aug-22 06:31N 51°30' W 002°42'0 0.0
2014-Aug-22 05:31N 51°30' W 002°42'0 0.0
2014-Aug-22 04:31N 51°30' W 002°42'0 0.0
2014-Aug-22 03:31N 51°30' W 002°42'0 0.0
2014-Aug-22 02:31N 51°30' W 002°42'0 0.0
2014-Aug-22 01:31N 51°30' W 002°42'0 0.0
2014-Aug-22 00:31N 51°30' W 002°42'0 0.0
2014-Aug-21 23:31N 51°30' W 002°42'0 0.0
2014-Aug-21 22:31N 51°30' W 002°42'0 0.0
2014-Aug-21 21:31N 51°30' W 002°42'0 0.0
2014-Aug-21 20:31N 51°30' W 002°42'0 0.0
2014-Aug-21 19:31N 51°30' W 002°42'0 0.0
2014-Aug-21 18:31N 51°30' W 002°42'0 0.0
2014-Aug-21 17:31N 51°30' W 002°42'0 0.3
2014-Aug-21 16:33N 51°30' W 002°43'4 3.7
2014-Aug-21 15:33N 51°29' W 002°48'1313.5
2014-Aug-21 14:33N 51°22' W 003°07'100 9.6
2014-Aug-21 04:09N 52°06' W 005°31'710.9
2014-Aug-21 03:33N 52°13' W 005°32'10112.7
2014-Aug-20 19:33N 53°53' W 005°58'  

Dump ship's entire track history